Weather History for KDKB - May, 2014

Change the Weather History Date:

Monday, May 5, 2014

  Actual Average (KARR) Record (KARR)
Temperature  
Mean Temperature 49 °F 55 °F  
Max Temperature 59 °F 67 °F 85 °F (2000)
Min Temperature 40 °F 43 °F 32 °F (2005)
Degree Days  
Heating Degree Days 16 10  
Month to date heating degree days 54  
Since 1 July heating degree days 6560  
Cooling Degree Days 0 0  
Month to date cooling degree days 0  
Year to date cooling degree days 3  
Moisture  
Dew Point 32 °F    
Average Humidity 55    
Maximum Humidity 75    
Minimum Humidity 37    
Precipitation  
Precipitation 0.03 in 0.13 in 0.68 in (2015)
Month to date precipitation 0.66  
Year to date precipitation 9.28  
Sea Level Pressure  
Sea Level Pressure 29.97 in    
Wind  
Wind Speed 13 mph (ENE)    
Max Wind Speed 23 mph    
Max Gust Speed 30 mph    
Visibility 10 miles    
Events Rain , Thunderstorm    
T = Trace of Precipitation, MM = Missing Value Source: NWS Daily Summary

Daily Weather History Graph

Daily Weather History Graph

Search for Another Location

Airport or City:

Trip Planner

Search our weather history database for the weather conditions in past years. The results will help you decide how hot, cold, wet, or windy it might be!

Date:

Astronomy

May. 05, 2014 Rise Set
Actual Time 5:45 AM CDT 7:57 PM CDT
Civil Twilight 5:14 AM CDT 8:28 PM CDT
Nautical Twilight 4:37 AM CDT 9:06 PM CDT
Astronomical Twilight 3:55 AM CDT 9:48 PM CDT
Moon 11:05 AM CDT (5/5) 12:41 AM CDT (5/5)
Length of Visible Light 15h 13m
Length of Day
14h 12m
Waxing Crescent, 37% of the Moon is Illuminated
May 5
Waxing Crescent
May 6
First Quarter
May 14
Full
May 21
Last Quarter
May 28
New

Hourly Weather History & Observations

Time (CDT) Temp. Windchill Dew Point Humidity Pressure Visibility Wind Dir Wind Speed Gust Speed Precip Events Conditions
12:15 AM 43.0 °F 38.2 °F 28.4 °F 56% 30.05 in 10.0 mi East 8.1 mph - N/A   Scattered Clouds
12:35 AM 42.8 °F 37.5 °F 29.3 °F 59% 30.04 in 10.0 mi East 9.2 mph - N/A   Scattered Clouds
12:55 AM 42.8 °F 38.0 °F 29.3 °F 59% 30.04 in 10.0 mi East 8.1 mph - N/A   Clear
1:15 AM 43.0 °F 37.7 °F 28.6 °F 57% 30.02 in 10.0 mi East 9.2 mph - N/A   Clear
1:35 AM 43.2 °F 37.9 °F 28.9 °F 57% 30.01 in 10.0 mi East 9.2 mph - N/A   Clear
1:55 AM 43.3 °F 38.6 °F 29.1 °F 57% 30.01 in 10.0 mi East 8.1 mph - N/A   Mostly Cloudy
2:15 AM 43.7 °F 38.6 °F 29.5 °F 57% 30.01 in 10.0 mi ENE 9.2 mph - N/A Rain Light Rain
2:35 AM 43.2 °F 36.6 °F 30.0 °F 60% 29.98 in 10.0 mi East 12.7 mph 16.1 mph N/A   Overcast
2:55 AM 43.3 °F 36.1 °F 29.3 °F 58% 29.95 in 10.0 mi East 15.0 mph - N/A   Mostly Cloudy
3:15 AM 43.7 °F 36.9 °F 29.3 °F 57% 29.97 in 10.0 mi East 13.8 mph - N/A   Clear
3:35 AM 43.0 °F 35.7 °F 30.2 °F 61% 29.94 in 10.0 mi ESE 15.0 mph - N/A   Clear
3:55 AM 42.3 °F 36.8 °F 30.2 °F 62% 29.96 in 10.0 mi East 9.2 mph - N/A Thunderstorm Clear
4:15 AM 42.1 °F 35.7 °F 30.9 °F 65% 29.95 in 10.0 mi East 11.5 mph - N/A   Clear
4:35 AM 42.1 °F 37.1 °F 31.3 °F 66% 29.97 in 10.0 mi East 8.1 mph - N/A   Scattered Clouds
4:55 AM 42.4 °F 36.1 °F 32.0 °F 67% 29.96 in 10.0 mi East 11.5 mph - N/A   Mostly Cloudy
5:15 AM 42.1 °F 36.6 °F 32.9 °F 70% 29.98 in 10.0 mi ENE 9.2 mph - N/A Rain Rain
5:35 AM 41.5 °F 35.4 °F 34.0 °F 75% 29.97 in 10.0 mi ENE 10.4 mph - N/A   Overcast
5:55 AM 41.7 °F 35.6 °F 34.2 °F 75% 29.99 in 10.0 mi ENE 10.4 mph - N/A   Overcast
6:15 AM 41.9 °F 35.4 °F 34.2 °F 74% 30.00 in 10.0 mi NE 11.5 mph - N/A   Overcast
6:35 AM 42.1 °F 35.2 °F 34.5 °F 75% 29.99 in 10.0 mi ENE 12.7 mph - N/A   Overcast
6:55 AM 42.4 °F 37.0 °F 34.3 °F 73% 30.00 in 10.0 mi ENE 9.2 mph - N/A   Overcast
7:15 AM 43.0 °F 36.4 °F 34.3 °F 72% 29.99 in 10.0 mi East 12.7 mph - N/A   Overcast
7:35 AM 43.7 °F 37.7 °F 34.7 °F 71% 30.01 in 10.0 mi ENE 11.5 mph - N/A   Overcast
7:55 AM 44.6 °F 37.8 °F 34.7 °F 68% 29.99 in 10.0 mi ENE 15.0 mph - N/A   Overcast
8:15 AM 45.7 °F 39.5 °F 35.1 °F 66% 29.98 in 10.0 mi East 13.8 mph - N/A   Overcast
8:35 AM 46.8 °F - 34.7 °F 63% 29.97 in 10.0 mi East 16.1 mph - N/A   Overcast
8:55 AM 48.4 °F - 35.2 °F 60% 29.97 in 10.0 mi ENE 16.1 mph 19.6 mph N/A   Overcast
9:15 AM 49.3 °F - 34.7 °F 57% 29.98 in 10.0 mi East 18.4 mph 23.0 mph N/A   Overcast
9:35 AM 50.0 °F - 34.0 °F 54% 29.97 in 10.0 mi East 19.6 mph 23.0 mph N/A   Overcast
9:55 AM 50.7 °F - 34.3 °F 53% 29.98 in 10.0 mi ENE 19.6 mph 25.3 mph N/A   Overcast
10:15 AM 52.0 °F - 34.0 °F 50% 29.98 in 10.0 mi ENE 18.4 mph 27.6 mph N/A   Overcast
10:35 AM 52.9 °F - 33.8 °F 48% 29.97 in 10.0 mi East 19.6 mph 27.6 mph N/A   Overcast
10:55 AM 54.1 °F - 33.6 °F 46% 29.97 in 10.0 mi ENE 20.7 mph 27.6 mph N/A   Overcast
11:15 AM 55.6 °F - 34.0 °F 44% 29.98 in 10.0 mi ENE 19.6 mph 24.2 mph N/A   Mostly Cloudy
11:35 AM 56.3 °F - 34.9 °F 45% 29.97 in 10.0 mi ENE 17.3 mph 25.3 mph N/A   Scattered Clouds
11:55 AM 55.8 °F - 34.0 °F 44% 29.97 in 10.0 mi ENE 18.4 mph 25.3 mph N/A   Clear
12:15 PM 57.0 °F - 34.9 °F 43% 29.97 in 10.0 mi ENE 19.6 mph - N/A   Clear
12:35 PM 57.4 °F - 33.1 °F 40% 29.96 in 10.0 mi ENE 20.7 mph 27.6 mph N/A   Clear
12:55 PM 57.7 °F - 34.0 °F 41% 29.96 in 10.0 mi ENE 23.0 mph 28.8 mph N/A   Clear
1:15 PM 57.6 °F - 33.4 °F 40% 29.95 in 10.0 mi ENE 23.0 mph 27.6 mph N/A   Clear
1:35 PM 57.7 °F - 33.1 °F 39% 29.95 in 10.0 mi ENE 20.7 mph 29.9 mph N/A   Clear
1:55 PM 57.9 °F - 33.1 °F 39% 29.95 in 10.0 mi ENE 21.9 mph 26.5 mph N/A   Clear
2:15 PM 57.4 °F - 32.5 °F 39% 29.94 in 10.0 mi ENE 20.7 mph 25.3 mph N/A   Clear
2:35 PM 57.6 °F - 32.0 °F 38% 29.94 in 10.0 mi ENE 20.7 mph 27.6 mph N/A   Clear
2:55 PM 56.5 °F - 32.2 °F 40% 29.93 in 10.0 mi ENE 20.7 mph 28.8 mph N/A   Clear
3:15 PM 56.3 °F - 31.6 °F 39% 29.93 in 10.0 mi East 17.3 mph 27.6 mph N/A   Clear
3:35 PM 57.7 °F - 31.3 °F 37% 29.92 in - ENE 20.7 mph 26.5 mph 0.03 in   Clear
3:55 PM 57.4 °F - 31.6 °F 38% 29.92 in 10.0 mi ENE 18.4 mph 25.3 mph 0.03 in   Clear
4:15 PM 56.5 °F - 32.0 °F 39% 29.93 in 10.0 mi East 18.4 mph 23.0 mph N/A   Clear
4:35 PM 56.3 °F - 31.6 °F 39% 29.94 in 10.0 mi ENE 16.1 mph 24.2 mph N/A   Clear
4:55 PM 56.7 °F - 30.9 °F 38% 29.94 in 10.0 mi ENE 16.1 mph 23.0 mph N/A   Clear
5:15 PM 55.9 °F - 30.6 °F 38% 29.94 in 10.0 mi East 17.3 mph - N/A   Clear
5:35 PM 55.4 °F - 30.7 °F 39% 29.94 in 10.0 mi ENE 13.8 mph 21.9 mph N/A   Clear
5:55 PM 53.8 °F - 31.6 °F 43% 29.94 in 10.0 mi ENE 13.8 mph 21.9 mph N/A   Clear
6:15 PM 53.4 °F - 31.3 °F 43% 29.95 in 10.0 mi ENE 16.1 mph 19.6 mph N/A   Clear
6:35 PM 52.7 °F - 31.5 °F 44% 29.95 in 10.0 mi ENE 15.0 mph - N/A   Clear
6:55 PM 51.8 °F - 30.9 °F 45% 29.95 in 10.0 mi ENE 13.8 mph - N/A   Clear
7:15 PM 50.9 °F - 29.5 °F 44% 29.96 in 10.0 mi ENE 15.0 mph - N/A   Clear
7:35 PM 49.3 °F - 30.4 °F 48% 29.96 in 10.0 mi ENE 12.7 mph - N/A   Clear
7:55 PM 48.6 °F - 30.7 °F 50% 29.96 in 10.0 mi ENE 11.5 mph - N/A   Clear
8:15 PM 47.5 °F - 31.1 °F 53% 29.97 in 10.0 mi NE 9.2 mph - N/A   Clear
8:35 PM 46.6 °F - 31.6 °F 56% 29.97 in 10.0 mi NE 11.5 mph - N/A   Clear
8:55 PM 44.8 °F 39.4 °F 32.0 °F 61% 29.96 in 10.0 mi NE 10.4 mph - N/A   Clear
9:15 PM 45.5 °F 38.3 °F 32.2 °F 60% 29.97 in 10.0 mi NE 17.3 mph - N/A   Clear
9:35 PM 44.1 °F 37.7 °F 33.1 °F 65% 29.97 in 10.0 mi NE 12.7 mph - N/A   Clear
9:55 PM 43.7 °F 37.3 °F 33.1 °F 66% 29.98 in 10.0 mi NE 12.7 mph - N/A   Clear
10:15 PM 43.0 °F 36.8 °F 32.9 °F 68% 29.98 in 10.0 mi NE 11.5 mph - N/A   Clear
10:35 PM 41.9 °F 35.9 °F 32.9 °F 70% 29.98 in 10.0 mi NE 10.4 mph - N/A   Clear
10:55 PM 41.9 °F 35.9 °F 32.9 °F 70% 29.98 in 10.0 mi NE 10.4 mph - N/A   Clear
11:15 PM 41.2 °F 35.0 °F 32.9 °F 72% 29.99 in 10.0 mi NE 10.4 mph - N/A   Clear
11:35 PM 41.0 °F 34.3 °F 32.4 °F 71% 29.99 in 10.0 mi NE 11.5 mph - N/A   Clear
11:55 PM 40.6 °F 33.4 °F 32.0 °F 71% 29.99 in 10.0 mi ENE 12.7 mph - N/A   Clear